SM6PGP-2 Weather Reports


Display with metric or nautical units.
time (UTC)temp
F
wind
direction
speed
MPH
gust
MPH
rain 1hr
in
rain 24hr
in
rain mn
in
humidity
%
barometer
mb
20260502162957 61 166 10.0 13.0 0.00 0.00 0.02 51 1009.4
20260502162451 61 180 13.0 13.0 0.00 0.00 0.02 51 1009.4
20260502161946 61 175 10.0 15.0 0.00 0.00 0.02 52 1009.5
20260502161442 61 157 18.0 21.0 0.00 0.00 0.02 51 1009.4
20260502160936 61 153 12.0 16.0 0.00 0.00 0.02 51 1009.6
20260502160431 62 135 15.0 17.0 0.00 0.00 0.02 49 1009.6
20260502151844 61 175 11.0 17.0 0.00 0.00 0.02 54 1010.3
20260502151339 61 171 13.0 17.0 0.00 0.00 0.02 54 1010.3
20260502150833 61 148 13.0 17.0 0.00 0.00 0.02 54 1010.4
20260502150328 61 148 14.0 17.0 0.00 0.00 0.02 54 1010.4
20260502130629 60 180 22.0 22.0 0.00 0.00 0.02 56 1012.0
20260502130124 60 148 19.0 21.0 0.00 0.00 0.02 56 1012.1
20260502123558 59 148 13.0 20.0 0.00 0.00 0.02 57 1012.4
20260502123052 59 135 20.0 23.0 0.00 0.00 0.02 56 1012.4
20260502122548 60 180 15.0 21.0 0.00 0.00 0.02 57 1012.5
20260502122042 59 166 16.0 19.0 0.00 0.00 0.02 58 1012.7
20260502121537 59 148 14.0 21.0 0.00 0.00 0.02 58 1012.7
20260502121032 59 180 18.0 19.0 0.00 0.00 0.02 58 1012.8
20260502120526 59 180 17.0 19.0 0.00 0.00 0.02 58 1012.8
20260502115516 59 171 15.0 22.0 0.00 0.00 0.02 58 1013.0
20260502115011 59 180 17.0 19.0 0.00 0.00 0.02 58 1013.0
20260502114506 59 153 15.0 21.0 0.00 0.00 0.02 57 1013.1
20260502114001 59 180 22.0 22.0 0.00 0.00 0.02 57 1013.2
20260502113456 59 153 15.0 21.0 0.00 0.00 0.02 58 1013.2
20260502112950 59 180 17.0 24.0 0.00 0.00 0.02 58 1013.3
20260502112445 59 180 17.0 25.0 0.00 0.00 0.02 57 1013.2
20260502111940 59 180 17.0 25.0 0.00 0.00 0.02 58 1013.3
20260502111435 58 189 18.0 21.0 0.00 0.00 0.02 58 1013.2
20260502110930 58 198 19.0 23.0 0.00 0.00 0.02 57 1013.3
20260502110424 59 180 21.0 21.0 0.00 0.00 0.02 57 1013.3
20260502105919 59 189 21.0 24.0 0.00 0.00 0.02 57 1013.3
20260502105414 59 189 14.0 32.0 0.00 0.00 0.02 57 1013.4
20260502104909 59 180 22.0 28.0 0.00 0.00 0.02 57 1013.2
20260502104404 59 171 21.0 28.0 0.00 0.00 0.02 57 1013.5
20260502103858 59 189 21.0 28.0 0.00 0.00 0.02 57 1013.4
20260502103353 60 180 21.0 22.0 0.00 0.00 0.02 56 1013.5
20260502102848 60 180 21.0 21.0 0.00 0.00 0.02 57 1013.5
20260502102343 59 180 13.0 20.0 0.00 0.00 0.02 58 1013.5
20260502101838 59 153 16.0 23.0 0.00 0.00 0.02 57 1013.6
20260502101332 59 153 18.0 22.0 0.00 0.00 0.02 58 1013.7
20260502100827 59 180 14.0 21.0 0.00 0.00 0.02 58 1013.7
20260502100322 59 162 18.0 22.0 0.00 0.00 0.02 58 1013.8
20260502091230 58 180 22.0 31.0 0.00 0.00 0.02 59 1014.2
20260502090725 58 144 21.0 28.0 0.00 0.00 0.02 59 1014.0
20260502090220 58 180 23.0 25.0 0.00 0.00 0.02 59 1014.2
20260502071530 57 157 20.0 25.0 0.00 0.00 0.02 61 1014.5
20260502071025 57 175 15.0 26.0 0.00 0.00 0.02 60 1014.6
20260502070520 57 189 15.0 30.0 0.00 0.00 0.02 60 1014.6
20260502070015 57 184 20.0 22.0 0.00 0.00 0.02 59 1014.6
20260502065510 57 180 15.0 20.0 0.00 0.00 0.02 60 1014.6
20260502065004 57 180 17.0 20.0 0.00 0.00 0.01 59 1014.7
20260502064459 58 180 12.0 18.0 0.00 0.00 0.00 60 1014.7
20260502063954 57 171 15.0 15.0 0.00 0.00 0.00 60 1014.8
20260502063449 57 193 10.0 16.0 0.00 0.00 0.00 61 1014.7
20260502062944 57 180 10.0 18.0 0.00 0.00 0.00 61 1014.7
20260502062438 56 180 17.0 17.0 0.00 0.00 0.00 62 1014.7
20260502061933 56 139 13.0 20.0 0.00 0.00 0.00 62 1014.9
20260502061428 56 184 14.0 16.0 0.00 0.00 0.00 63 1014.9
20260502060923 56 166 12.0 19.0 0.00 0.00 0.00 63 1015.0
20260502060418 55 180 14.0 16.0 0.00 0.00 0.00 63 1015.0
20260502055912 55 171 17.0 18.0 0.00 0.00 0.00 64 1014.8
20260502055407 55 171 13.0 18.0 0.00 0.00 0.00 65 1015.1
20260502054902 55 162 7.0 17.0 0.00 0.00 0.00 66 1015.0
20260502054357 54 166 14.0 17.0 0.00 0.00 0.00 67 1015.1
20260502053852 54 171 11.0 18.0 0.00 0.00 0.00 68 1015.1
20260502053346 53 180 14.0 15.0 0.00 0.00 0.00 70 1015.1
20260502052841 53 180 11.0 11.0 0.00 0.00 0.00 73 1015.2
20260502052336 52 148 10.0 12.0 0.00 0.00 0.00 75 1015.2
20260502051831 51 175 5.0 11.0 0.00 0.00 0.00 77 1015.2
20260502051326 50 180 8.0 10.0 0.00 0.00 0.00 80 1015.3
20260502050820 49 157 4.0 9.0 0.00 0.00 0.00 81 1015.3
20260502050315 47 180 6.0 9.0 0.00 0.00 0.00 82 1015.4
20260502045810 46 148 4.0 4.0 0.00 0.00 0.00 82 1015.4
20260502045306 44 135 2.0 3.0 0.00 0.00 0.00 82 1015.4
20260502044800 42 175 2.0 2.0 0.00 0.00 0.00 81 1015.5
20260502044254 40 135 0.0 1.0 0.00 0.00 0.00 80 1015.6
20260502043749 40 90 0.0 2.0 0.00 0.00 0.00 79 1015.5
20260502043244 39 13 2.0 3.0 0.00 0.00 0.00 80 1015.6
20260502042739 39 0 3.0 3.0 0.00 0.00 0.00 79 1015.7
20260502042234 39 0 1.0 2.0 0.00 0.00 0.00 78 1015.7
20260502041728 39 45 1.0 2.0 0.00 0.00 0.00 78 1015.7
20260502041223 39 45 1.0 1.0 0.00 0.00 0.00 78 1015.8
20260502040932 39 45 1.0 1.0 0.00 0.00 0.00 78 1015.8
20260502040930 39 45 1.0 1.0 0.00 0.00 0.00 78 1015.7
20260502040928 38 0 2.0 3.0 0.00 0.00 0.00 78 1015.9
20260502040926 38 22 1.0 2.0 0.00 0.00 0.00 77 1016.0
20260502040718 39 45 1.0 1.0 0.00 0.00 0.00 78 1015.8
20260502040213 39 45 1.0 1.0 0.00 0.00 0.00 78 1015.7
20260502035708 39 45 0.0 3.0 0.00 0.00 0.00 78 1015.9
20260502035202 38 0 2.0 3.0 0.00 0.00 0.00 78 1015.9
20260502034657 38 22 1.0 2.0 0.00 0.00 0.00 77 1016.0
20260502033644 38 0 3.0 3.0 0.00 0.00 0.00 77 1016.1
20260502033139 38 45 1.0 3.0 0.00 0.00 0.00 77 1016.2
20260502032633 38 0 3.0 3.0 0.00 0.00 0.00 77 1016.2
20260502032128 38 45 1.0 3.0 0.00 0.00 0.00 77 1016.3
20260502031623 38 9 2.0 3.0 0.00 0.00 0.00 77 1016.4
20260502031118 38 0 2.0 3.0 0.00 0.00 0.00 76 1016.5
20260502030613 38 18 2.0 3.0 0.00 0.00 0.00 76 1016.5
20260502030107 38 0 3.0 4.0 0.00 0.00 0.00 76 1016.6
20260502025602 38 0 2.0 4.0 0.00 0.00 0.00 76 1016.6
20260502025057 38 0 3.0 3.0 0.00 0.00 0.00 76 1016.6
20260502024552 38 0 2.0 2.0 0.00 0.00 0.00 76 1016.7
20260502024047 38 0 1.0 2.0 0.00 0.00 0.00 76 1016.8
20260502023542 38 0 3.0 3.0 0.00 0.00 0.00 76 1016.8
20260502023036 39 0 2.0 3.0 0.00 0.00 0.00 76 1017.0
20260502022531 39 45 1.0 2.0 0.00 0.00 0.00 76 1016.9
20260502022026 39 0 3.0 4.0 0.00 0.00 0.00 75 1017.0
20260502021521 39 0 3.0 3.0 0.00 0.00 0.00 76 1017.1
20260502021016 39 45 2.0 3.0 0.00 0.00 0.00 75 1017.1
20260502020510 39 0 3.0 3.0 0.00 0.00 0.00 75 1017.2
20260502020005 39 45 2.0 2.0 0.00 0.00 0.00 75 1017.3
20260502015500 39 0 1.0 4.0 0.00 0.00 0.00 75 1017.4
20260502014955 39 0 2.0 2.0 0.00 0.00 0.00 75 1017.5
20260502014449 39 45 2.0 3.0 0.00 0.00 0.00 75 1017.5
20260502013944 39 0 3.0 4.0 0.00 0.00 0.00 75 1017.5
20260502013439 39 0 3.0 3.0 0.00 0.00 0.00 74 1017.6
20260502012934 39 0 3.0 3.0 0.00 0.00 0.00 75 1017.7
20260502012429 40 0 2.0 3.0 0.00 0.00 0.00 75 1017.7
20260502011923 40 0 3.0 3.0 0.00 0.00 0.00 75 1017.9
20260502011418 40 0 3.0 3.0 0.00 0.00 0.00 75 1017.9
20260502010913 40 0 3.0 3.0 0.00 0.00 0.00 74 1017.9
20260502010408 39 0 2.0 4.0 0.00 0.00 0.00 75 1018.1
20260502005903 40 0 3.0 3.0 0.00 0.00 0.00 74 1018.1
20260502005357 40 18 2.0 3.0 0.00 0.00 0.00 74 1018.2
20260502004852 40 0 2.0 2.0 0.00 0.00 0.00 75 1018.3
20260502004347 40 4 2.0 3.0 0.00 0.00 0.00 74 1018.3
20260502003842 40 45 2.0 4.0 0.00 0.00 0.00 74 1018.4
20260502003337 40 0 3.0 3.0 0.00 0.00 0.00 74 1018.4
20260502002831 40 45 1.0 2.0 0.00 0.00 0.00 73 1018.5
20260502002326 40 0 1.0 2.0 0.00 0.00 0.00 74 1018.5
20260502001821 40 0 2.0 2.0 0.00 0.00 0.00 74 1018.6
20260502001316 41 0 1.0 2.0 0.00 0.00 0.00 74 1018.6
20260502000811 40 0 3.0 3.0 0.00 0.00 0.00 74 1018.6
20260502000305 40 40 2.0 3.0 0.00 0.00 0.00 74 1018.7
20260501235800 40 0 2.0 3.0 0.00 0.00 0.00 74 1018.7
20260501235255 41 45 2.0 2.0 0.00 0.00 0.00 74 1018.8
20260501234750 41 0 1.0 2.0 0.00 0.00 0.00 74 1018.8
20260501234245 41 0 1.0 2.0 0.00 0.00 0.00 75 1018.8
20260501233739 41 45 2.0 2.0 0.00 0.00 0.00 75 1018.7
20260501233234 41 0 2.0 3.0 0.00 0.00 0.00 74 1018.8
20260501232729 41 0 3.0 3.0 0.00 0.00 0.00 74 1019.0
20260501232224 41 0 2.0 3.0 0.00 0.00 0.00 74 1019.0
20260501231719 41 0 2.0 2.0 0.00 0.00 0.00 73 1019.0
20260501231213 41 90 0.0 0.0 0.00 0.00 0.00 73 1019.1
20260501230708 41 85 0.0 0.0 0.00 0.00 0.00 74 1019.1
20260501230203 41 90 0.0 0.0 0.00 0.00 0.00 73 1019.2
20260501225658 41 0 1.0 3.0 0.00 0.00 0.00 73 1019.3
20260501225153 40 0 3.0 3.0 0.00 0.00 0.00 72 1019.3
20260501224647 40 45 2.0 2.0 0.00 0.00 0.00 72 1019.3
20260501224142 40 45 2.0 2.0 0.00 0.00 0.00 71 1019.3
20260501223637 40 90 0.0 0.0 0.00 0.00 0.00 70 1019.3
20260501223132 41 90 0.0 0.0 0.00 0.00 0.00 70 1019.3
20260501222627 41 135 0.0 2.0 0.00 0.00 0.00 70 1019.4
20260501222121 42 135 1.0 1.0 0.00 0.00 0.00 70 1019.4
20260501221616 42 135 1.0 3.0 0.00 0.00 0.00 70 1019.4
20260501221111 42 135 2.0 3.0 0.00 0.00 0.00 69 1019.4
20260501220606 42 135 4.0 4.0 0.00 0.00 0.00 69 1019.5
20260501220101 42 157 2.0 2.0 0.00 0.00 0.00 69 1019.4
20260501215555 42 180 0.0 0.0 0.00 0.00 0.00 69 1019.5
20260501215050 42 225 0.0 0.0 0.00 0.00 0.00 69 1019.6
20260501214545 43 90 0.0 0.0 0.00 0.00 0.00 70 1019.6
20260501214040 43 45 1.0 2.0 0.00 0.00 0.00 70 1019.7
20260501213535 43 45 1.0 3.0 0.00 0.00 0.00 70 1019.8
20260501213030 42 45 1.0 2.0 0.00 0.00 0.00 69 1019.9
20260501212525 42 0 1.0 3.0 0.00 0.00 0.00 69 1019.9
20260501212019 42 0 2.0 3.0 0.00 0.00 0.00 68 1020.0
20260501211514 42 0 2.0 2.0 0.00 0.00 0.00 67 1020.0
20260501211009 42 90 0.0 0.0 0.00 0.00 0.00 67 1020.0
20260501210503 42 135 0.0 0.0 0.00 0.00 0.00 67 1020.1
20260501205958 42 0 0.0 0.0 0.00 0.00 0.00 66 1020.1
20260501205453 43 0 0.0 2.0 0.00 0.00 0.00 66 1020.1
20260501204948 43 0 1.0 2.0 0.00 0.00 0.00 64 1020.2
20260501204443 43 85 0.0 2.0 0.00 0.00 0.00 64 1020.3
20260501203938 44 135 2.0 2.0 0.00 0.00 0.00 63 1020.2
20260501203432 44 180 3.0 4.0 0.00 0.00 0.00 63 1020.3
20260501202927 44 202 2.0 2.0 0.00 0.00 0.00 62 1020.4
20260501202422 45 180 2.0 3.0 0.00 0.00 0.00 62 1020.4
20260501201917 45 135 1.0 2.0 0.00 0.00 0.00 61 1020.5
20260501201411 45 135 1.0 1.0 0.00 0.00 0.00 59 1020.5
20260501200906 46 135 1.0 1.0 0.00 0.00 0.00 58 1020.7
20260501200401 47 135 1.0 2.0 0.00 0.00 0.00 58 1020.6
20260501195856 48 180 1.0 2.0 0.00 0.00 0.00 58 1020.7
20260501195351 48 180 2.0 3.0 0.00 0.00 0.00 58 1020.7
20260501194845 48 135 1.0 2.0 0.00 0.00 0.00 58 1020.8
20260501194340 48 135 2.0 3.0 0.00 0.00 0.00 57 1020.8
20260501193835 48 135 2.0 2.0 0.00 0.00 0.00 56 1020.9
20260501193330 49 90 1.0 3.0 0.00 0.00 0.00 56 1021.1
20260501192825 49 135 2.0 4.0 0.00 0.00 0.00 55 1021.1
20260501192320 50 180 3.0 4.0 0.00 0.00 0.00 54 1021.1
20260501191814 50 162 3.0 4.0 0.00 0.00 0.00 54 1021.1
20260501191309 50 139 4.0 6.0 0.00 0.00 0.00 53 1021.2
20260501190804 50 148 4.0 6.0 0.00 0.00 0.00 53 1021.2
20260501190259 50 139 3.0 5.0 0.00 0.00 0.13 52 1021.2
20260501185754 50 135 3.0 4.0 0.00 0.00 0.13 51 1021.2
20260501185248 50 135 2.0 3.0 0.00 0.00 0.13 50 1021.3
20260501184743 51 139 2.0 3.0 0.00 0.00 0.13 49 1021.3
20260501184238 51 135 1.0 3.0 0.00 0.00 0.13 48 1021.3
20260501183733 52 135 2.0 2.0 0.00 0.00 0.13 47 1021.3
20260501183228 52 135 3.0 4.0 0.00 0.00 0.13 47 1021.4
20260501182722 53 135 3.0 3.0 0.00 0.00 0.13 45 1021.3
20260501182217 53 135 2.0 3.0 0.00 0.00 0.13 44 1021.5
20260501181712 54 171 3.0 4.0 0.00 0.00 0.13 44 1021.5
20260501181207 54 139 4.0 5.0 0.00 0.00 0.13 43 1021.4
20260501180702 54 157 5.0 5.0 0.00 0.00 0.13 42 1021.4
20260501180156 55 171 4.0 7.0 0.00 0.00 0.13 42 1021.5
20260501175651 55 180 5.0 10.0 0.00 0.00 0.13 42 1021.5
20260501175146 55 180 9.0 12.0 0.00 0.00 0.13 42 1021.4
20260501174641 55 171 8.0 11.0 0.00 0.00 0.13 42 1021.6
20260501174136 56 180 7.0 9.0 0.00 0.00 0.13 43 1021.6
20260501173630 56 166 8.0 12.0 0.00 0.00 0.13 42 1021.6
20260501172617 57 148 12.0 14.0 0.00 0.00 0.13 38 1021.5
20260501172112 57 180 7.0 11.0 0.00 0.00 0.13 37 1021.6
20260501171607 58 139 8.0 11.0 0.00 0.00 0.13 36 1021.7
20260501171101 59 175 8.0 10.0 0.00 0.00 0.13 36 1021.8
20260501170556 59 162 9.0 9.0 0.00 0.00 0.13 36 1021.9
20260501170051 59 162 5.0 8.0 0.00 0.00 0.13 35 1021.9
20260501165546 60 171 5.0 8.0 0.00 0.00 0.08 35 1022.0
20260501165041 60 157 5.0 8.0 0.00 0.00 0.08 34 1022.1
20260501164535 60 135 7.0 7.0 0.00 0.00 0.08 34 1022.0
20260501164030 61 166 6.0 6.0 0.00 0.00 0.08 33 1022.2
20260501163525 61 139 6.0 7.0 0.00 0.00 0.08 32 1022.2